Regional Weather Roundup
Issued by NWS Sioux Falls, SD

Home | Current Version | Previous Version | Text Only | Print | Product List | Glossary Off
Versions: 1 2 3 4 5 6 7 8 9 10 11 12 13 14 15 16 17 18 19 20 21 22 23 24 25 26 27 28 29 30 31 32 33 34 35 36 37 38 39 40 41 42 43 44 45 46 47 48 49 50

000
ASUS43 KFSD 250210
RWRFSD

WEATHER ROUNDUP FOR SE SOUTH DAKOTA/SW MINNESOTA/NW IOWA
NATIONAL WEATHER SERVICE SIOUX FALLS SD
800 PM CST SAT JAN 24 2015

NOTE: "FAIR" INDICATES FEW OR NO CLOUDS BELOW 12,000 FEET WITH NO
SIGNIFICANT WEATHER AND OR OBSTRUCTIONS TO VISIBILITY.


SDZ038>040-050-052>070-250300-
SOUTHEAST SOUTH DAKOTA

CITY           SKY/WX    TMP DP  RH WIND       PRES   REMARKS
CHAMBERLAIN    CLOUDY    41  34  77 NW18G26   29.68R
HURON          LGT RAIN  39  37  92 NW20      29.59R
MADISON        LGT RAIN  36  36 100 NW3       29.56R
MITCHELL       LGT RAIN  42  40  92 NW20G29   29.61R
SIOUX FALLS    CLOUDY    37  34  89 CALM      29.55F
WINNER         LGT RAIN  46  37  71 NW26G45   29.71R
YANKTON        CLOUDY    46  36  66 NW16G24   29.59R
$$

MNZ071-072-080-081-089-090-097-098-250300-
SOUTHWEST MINNESOTA

CITY           SKY/WX    TMP DP  RH WIND       PRES   REMARKS
FAIRMONT       CLOUDY    34  28  80 CALM      29.57S
JACKSON        CLOUDY    36  32  87 W3        29.56F
LUVERNE        CLOUDY    36  34  93 CALM      29.56S
MARSHALL       CLOUDY    34  32  93 NW3       29.60S
MONTEVIDEO     CLOUDY    34  30  86 N3        29.61R
PIPESTONE      CLOUDY    36  34  93 CALM      29.55S
REDWOOD FALLS  CLOUDY    36  31  82 NW5       29.58S
TRACY          RAIN      36  34  94 N7        29.58S
WINDOM         CLOUDY    36  34  93 CALM      29.57S
WORTHINGTON    CLOUDY    36  30  80 CALM      29.57F
$$

IAZ001>003-012>014-020>022-031-032-NEZ013-014-SDZ071-250300-
NORTHWEST IOWA

CITY           SKY/WX    TMP DP  RH WIND       PRES   REMARKS
CHEROKEE       CLOUDY    35  34  97 CALM      29.57F
DENISON        CLOUDY    43  34  70 SW3       29.58F
ESTHERVILLE    CLOUDY    35  32  88 W7        29.56S WCI  29
LE MARS        CLOUDY    37  36  93 CALM      29.57F
ORANGE CITY    LGT RAIN  39  34  81 CALM      29.56F
SHELDON        CLOUDY    37  37 100 CALM      29.55F
SIOUX CITY     CLOUDY    44  36  73 SW7       29.57F
SPENCER        LGT RAIN  37  33  85 NW5       29.57F
STORM LAKE     CLOUDY    39  34  81 SW6       29.58F
$$

ABBREVIATIONS USED IN REMARKS
   TC - TEMPERATURE IN CELSIUS
  WCI - WIND CHILL INDEX
   HX - HEAT INDEX
  VSB - VISIBILITY



USA.gov is the U.S. government's official web portal to all federal, state and local government web resources and services.